TITAN 3C TRANSTAGE DEB, 34165

Orbit data source: Space-Track

TITAN 3C TRANSTAGE DEB, 34165 is space debris in HEO originally from a launch on Tue, 21 Dec 1965 UTC launched from the Air Force Eastern Test Range (AFETR). Debris objects in space refer to the collection of defunct objects orbiting the Earth. Examples of debris include non-operational satellites, rocket bodies, and fragments generated from explosions, collisions, or faulty payload assembly.

Loading next visibility...
Identifier
34165, 1965-108CY
Orbit
HEO
Country
Flag of USUS
Related business
Manufacturer
Unknown
Mission
Spacecraft
Bus & Motor
Unknown
Mass
Unknown
Launch date (UTC)
1965-12-21 (60 years ago)
Launch vehicle
Unknown
Launch site
Air Force Eastern Test Range (AFETR)
Object type
Payload
Rocket body
Debris
Shape & HBR
Unknown shape, 0.1 m
Radar Cross Section
Small (<0.1 m²)

Expand to show TLE details & history
Last TLE update: 4 days ago

TLE from 4 days ago
0 TITAN 3C TRANSTAGE DEB
1 34165U 65108CY  26141.37364177  .00000441  00000-0  20554-2 0  9998
2 34165  26.4890 150.4564 6349490   7.0554 358.7880  3.34113416156592
Epoch: 2026-05-21T08:58Z
TLE epoch observation values (Epoch: 2026-05-21T08:58:02.648Z)
Latitude
-0.00001°
Longitude
136.91718°
Altitude
549.734 km
Speed
9.694 km/s
True Right ascension
10h 01m 47s
True Declination
0° 00' 00"
Sunlit
Object was in daylight at epoch
Visualization orbit readout
Latitude
Unknown
Longitude
Unknown
Altitude
Unknown
Speed
Unknown
Apparent Right ascension
Unknown
Apparent Declination
Unknown
Sunlit
N/A
Visualization observer readout
Local Sidereal Time
13:51:17
Azimuth
Unknown
Elevation
Unknown
Doppler factor
Unknown
Orbital elements
Apogee altitude
24,528.981 km
Perigee altitude
522.797 km
Semi-major axis
18,904.026 km
Eccentricity
0.63495
Inclination
26.489°
RAAN
150.4564°
Arg. of periapsis
7.0554°
True anomaly
352.98736°
Mean anomaly
358.788°
Eccentric anomaly
356.68314°
Mean motion
0.83505 °/min
Orbital period
431.11 mins
BSTAR
0.0020554
Loading maneuver chart data...
Computing Atmospheric mass density...

Documentation

Showing up to 5 results
|